This is the latest recevied weather packets stored in our database for station/object K7CTM. If no packets are shown the sender has not sent any weather packets the latest 10 day(s).
| Time | Temp. | Humidity | Pressure | Rain* | Wind** | Luminosity | Snow |
|---|---|---|---|---|---|---|---|
| 1777450068 | 2.22° C | 79% | 1029.5 hPa | 0 mm | - | 0 W/m² | - |
| 1777449764 | 2.22° C | 77% | 1029.4 hPa | 0 mm | - | 0 W/m² | - |
| 1777449461 | 2.78° C | 77% | 1029.5 hPa | 0 mm | - | 0 W/m² | - |
| 1777449156 | 2.78° C | 77% | 1029.4 hPa | 0 mm | - | 0 W/m² | - |
| 1777448852 | 2.78° C | 75% | 1029.4 hPa | 0 mm | - | 0 W/m² | - |
| 1777448549 | 2.78° C | 77% | 1029.5 hPa | 0 mm | - | 0 W/m² | - |
| 1777448245 | 3.33° C | 74% | 1029.4 hPa | 0 mm | - | 0 W/m² | - |
| 1777447942 | 3.89° C | 73% | 1029.2 hPa | 0 mm | - | 0 W/m² | - |
| 1777447637 | 3.89° C | 72% | 1029.4 hPa | 0 mm | - | 0 W/m² | - |
| 1777447334 | 3.89° C | 72% | 1029.5 hPa | 0 mm | - | 0 W/m² | - |
| 1777447032 | 3.89° C | 73% | 1029.6 hPa | 0 mm | - | 0 W/m² | - |
| 1777446730 | 3.33° C | 74% | 1029.5 hPa | 0 mm | - | 0 W/m² | - |
| 1777446425 | 3.33° C | 74% | 1029.4 hPa | 0 mm | - | 0 W/m² | - |
| 1777446122 | 3.89° C | 74% | 1029.6 hPa | 0 mm | - | 0 W/m² | - |
| 1777445818 | 3.33° C | 74% | 1029.5 hPa | 0 mm | - | 0 W/m² | - |
| 1777445514 | 3.33° C | 75% | 1029.5 hPa | 0 mm | - | 0 W/m² | - |
| 1777445211 | 3.33° C | 75% | 1029.4 hPa | 0 mm | - | 0 W/m² | - |
| 1777444907 | 3.89° C | 76% | 1029.4 hPa | 0 mm | - | 0 W/m² | - |
| 1777444603 | 4.44° C | 73% | 1029.4 hPa | 0 mm | - | 0 W/m² | - |
| 1777444300 | 3.89° C | 74% | 1029.5 hPa | 0 mm | - | 0 W/m² | - |
| 1777443996 | 3.89° C | 74% | 1029.2 hPa | 0 mm | - | 0 W/m² | - |
| 1777443693 | 4.44° C | 73% | 1029.4 hPa | 0 mm | - | 0 W/m² | - |
| 1777443392 | 4.44° C | 72% | 1029.5 hPa | 0 mm | - | 0 W/m² | - |
| 1777443090 | 4.44° C | 73% | 1029.5 hPa | 0 mm | - | 0 W/m² | - |
| 1777442787 | 3.89° C | 75% | 1029.2 hPa | 0 mm | - | 0 W/m² | - |
* Rain latest hour (hover to see other rain measurements)
** Current wind speed in m/s (hover to see current wind gust speed)